星链-34358 (STARLINK-34358)

导读

STARLINK-34358是美国SpaceX星链星座的一员,于2025年6月8日发射入轨。该卫星运行在近地轨道,轨道倾角约70度,轨道高度在570公里至574公里之间,每日绕地球旋转约15圈。作为星链互联网卫星,它主要为全球范围提供高速低延迟的宽带互联网接入服务,拓展了星链网络覆盖能力。

基本信息
目录编号:
64313
目录名称:
STARLINK-34358
国际标识:
2025-123Y
轨道中心:
EARTH
卫星名称:
星链-34358
卫星全名:
星链-34358 (STARLINK-34358)
卫星状态:
在轨 (已飞行453 天)
发射日期:
2025-06-08 UTC
国别 :
美国 (US)
星等 :
--
轨道信息
数据来源 国际轨道数据
星历时间: 2026-09-04T14:00:02+0800
6小时前
查看轨道信息
半长轴: 6889.97km
偏心率: 0.0005083
轨道倾角: 70.001°
近地点辐角 238.397°
升交点赤经 104.083°
平近点角 345.217°
近地点: 508.33km
远地点: 515.336km
周期: 94.861分钟
每日圈数: 15.180175
详细信息
固有亮度:
5
最大亮度:
2.5
卫星平台:
Starlink V1.0
覆盖范围:
全球
运营商:
太空探索技术公司
运营商所在国:
美国
制造商(研发单位):
太空探索技术公司
制造商所在国:
美国
使用方式:
暂无
卫星简介
Starlink 计划是 SpaceX 推出的全球卫星互联网项目,通过发射低轨道卫星,为全球尤其是偏远地区提供高速、低延迟的互联网服务。自 2019 年起,Starlink 已部署数千颗卫星,旨在缩小全球数字鸿沟,推动互联网普及。该项目还为军事、航空等行业提供通信支持,带来广泛经济效益。
2D轨道图
3D轨道图
轨道高度分析图
轨道倾角分析图
轨道综合分析图
查看轨道综合分析图
交会数据列表
事件ID 空间交会对象 最接近时刻(TCA) 交会距离 交会风险概率(CRP) 交会风险指数(CRI) 操作
CDM_260905-154705-885406-431321
2026-09-05T
15:47:35+0000
1.297 km
极远距离
9.642316E-6 低风险 0.55
CDM_260906-092806-059006-431321
2026-09-06T
09:28:23+0000
1.601 km
极远距离
3.96664E-6 低风险 0.47
CDM_260906-080506-431306-689721
2026-09-06T
08:05:06+0000
1.755 km
极远距离
3.829541E-6 低风险 0.47
CDM_260906-085806-338406-431321
2026-09-06T
08:58:23+0000
2.040 km
极远距离
2.554322E-6 低风险 0.43
CDM_260905-141305-885406-431321
2026-09-05T
14:13:22+0000
2.285 km
极远距离
1.866846E-6 低风险 0.4
CDM_260905-133206-431306-717021
2026-09-05T
13:32:15+0000
2.285 km
极远距离
1.551585E-6 低风险 0.39
CDM_260906-082106-431306-601221
2026-09-06T
08:21:20+0000
2.744 km
极远距离
1.294864E-6 低风险 0.37
CDM_260905-153206-274206-431321
2026-09-05T
15:32:02+0000
2.767 km
极远距离
1.256656E-6 低风险 0.37
CDM_260906-075406-059006-431321
2026-09-06T
07:54:35+0000
2.656 km
极远距离
1.205511E-6 低风险 0.37
CDM_260906-031606-431306-781221
2026-09-06T
03:16:23+0000
2.503 km
极远距离
9.004888E-7 极低风险 0.34